Find OneWeb SL0567

NORAD ID: 55147 Int'l Des: 2023-004 Owner: ONEWEBN Country: UK Constellation: oneweb operational
別名: ONEWEB-0567 spacetrack, celestrak
LEOCIRCULARPOLARONEWEB_TYPE

現在のビュー

3D地球を読み込み中...

About OneWeb SL0567

OneWeb SL0567 (NORAD 55147) is a oneweb constellation satellite launched Jan 10, 2023 by ONEWEBN of UK. It operates in LEO, CIRCULAR, POLAR, ONEWEB_TYPE orbit with a mass of 148.00 kg.

次回通過

Passes for default location (London). Set your location on the main map for personalized predictions.

高度履歴

Loading altitude history...

軌道要素

1 55147U 23004H 26264.42418792 .00000068 00000-0 13895-3 0 9991
2 55147 87.9153 316.3437 0001603 97.1657 262.9657 13.18686818182388
Epoch: Sep 21, 2026 • Age: 12 hours

現在のステータス

高度 1196.6 km
遠地点 / 近地点 N/A
速度 7.26 km/s
衛星直下点 49.57°N, 166.54°E
打ち上げ日 Jan 10, 2023
運用期間 3.6 years
タイプ internet

技術仕様

分類 Payload
質量 148.00 kg
乾燥質量 140.00 kg
長さ 1.30 m
直径 1.00 m
スパン 5.00 m
形状 ? Trapezoid+2 pan
製造者 ONEWUS
バスタイプ ARROW
フェーズステータス In Orbit
所有者/国 ONEWEBN/UK

Most Searched